FW5301 Weather Reports


time (UTC)temp
C
wind
direction
speed
KPH
gust
KPH
rain 1hr
cm
rain 24hr
cm
rain mn
cm
humidity
%
barometer
mb
20260503194506 10 302 0.0 1.6 0.00 0.00 0.00 50 1019.1
20260503193055 10 302 0.0 3.2 0.00 0.00 0.00 48 1019.2
20260503191518 11 302 0.0 1.6 0.00 0.00 0.00 45 1019.2
20260503190050 11 313 0.0 1.6 0.00 0.00 0.00 45 1019.2
20260503184530 12 314 0.0 1.6 0.00 0.00 0.00 43 1019.2
20260503183101 13 314 0.0 1.6 0.00 0.00 0.00 40 1019.1
20260503181529 13 314 0.0 1.6 0.00 0.00 0.00 41 1018.9
20260503180006 13 314 0.0 4.8 0.00 0.00 0.00 40 1019.0
20260503174554 12 309 0.0 0.0 0.00 0.00 0.00 44 1018.7
20260503173035 13 309 0.0 1.6 0.00 0.00 0.00 41 1018.6
20260503171503 15 309 0.0 1.6 0.00 0.00 0.00 37 1018.8
20260503081536 15 60 1.6 4.8 0.00 0.00 0.00 38 1023.3
20260503080106 14 39 0.0 6.4 0.00 0.00 0.00 39 1023.5
20260503071538 12 77 3.2 6.4 0.00 0.00 0.00 46 1023.4
20260503054605 8 22 3.2 6.4 0.00 0.00 0.00 51 1023.5
20260503054507 8 65 3.2 6.4 0.00 0.00 0.00 51 1023.4
20260503053032 8 58 1.6 6.4 0.00 0.00 0.00 50 1023.4
20260503051517 8 37 0.0 6.4 0.00 0.00 0.00 52 1023.4
20260503050043 8 39 0.0 3.2 0.00 0.00 0.00 53 1023.5
20260503044527 8 27 0.0 0.0 0.00 0.00 0.00 52 1023.4
20260503043101 9 24 0.0 0.0 0.00 0.00 0.00 50 1023.3
20260503043002 9 24 0.0 0.0 0.00 0.00 0.00 50 1023.3
20260503041543 9 24 0.0 0.0 0.00 0.00 0.00 49 1023.2
20260503040014 6 303 0.0 0.0 0.00 0.00 0.00 61 1023.1
20260503034602 5 303 0.0 0.0 0.00 0.00 0.00 62 1023.0
20260503033038 3 303 0.0 0.0 0.00 0.00 0.00 64 1022.9
20260503031512 3 303 0.0 0.0 0.00 0.00 0.00 63 1022.9
20260503030112 3 303 0.0 0.0 0.00 0.00 0.00 62 1022.7
20260503024535 3 303 0.0 0.0 0.00 0.00 0.00 63 1022.5
20260503023026 3 303 0.0 0.0 0.00 0.00 0.00 63 1022.6
20260503021506 4 303 0.0 0.0 0.00 0.00 0.00 61 1022.5
20260503020052 4 303 0.0 0.0 0.00 0.00 0.00 61 1022.5
20260503014527 4 303 0.0 0.0 0.00 0.00 0.00 61 1022.5
20260503013014 4 303 0.0 0.0 0.00 0.00 0.00 62 1022.6
20260503011552 3 303 0.0 0.0 0.00 0.00 0.00 62 1022.6
20260503010022 4 303 0.0 0.0 0.00 0.00 0.00 60 1022.6
20260503004559 4 303 0.0 0.0 0.00 0.00 0.00 60 1022.5
20260503003047 4 303 0.0 0.0 0.00 0.00 0.00 60 1022.7
20260503001516 5 303 0.0 0.0 0.00 0.00 0.00 58 1022.5
20260503000051 5 303 0.0 0.0 0.00 0.00 0.00 57 1022.5
20260502234516 5 303 0.0 0.0 0.00 0.00 0.00 56 1022.8
20260502233056 6 303 0.0 0.0 0.00 0.00 0.00 54 1022.8
20260502231537 6 303 0.0 0.0 0.00 0.00 0.00 53 1022.7
20260502230014 6 303 0.0 0.0 0.00 0.00 0.00 54 1022.6
20260502224551 6 303 0.0 0.0 0.00 0.00 0.00 54 1022.7
20260502223038 6 303 0.0 0.0 0.00 0.00 0.00 56 1022.9
20260502221515 6 303 0.0 0.0 0.00 0.00 0.00 56 1023.0
20260502220056 6 303 0.0 0.0 0.00 0.00 0.00 55 1023.0
20260502214547 6 303 0.0 0.0 0.00 0.00 0.00 55 1023.0
20260502213033 6 303 0.0 0.0 0.00 0.00 0.00 54 1023.2
20260502211504 7 303 0.0 0.0 0.00 0.00 0.00 52 1023.2
20260502210036 7 303 0.0 3.2 0.00 0.00 0.00 53 1023.3
20260502204514 7 303 0.0 1.6 0.00 0.00 0.00 54 1023.2
20260502203106 7 303 0.0 0.0 0.00 0.00 0.00 53 1023.2
20260502201525 7 303 0.0 1.6 0.00 0.00 0.00 52 1023.2
20260502200054 7 311 0.0 1.6 0.00 0.00 0.00 53 1023.1